Dewpoint
71 72 72 71 72 67 71 71 72 70 70 67 66 64 62 63 62 64 67 73 73 72 72 72 72 72 73 74 74 75 76 77 77 78 77 76 76 76 75 75 74 74 74
75 72 73 72 68 72 69 72 74 74 70 66 66 64 65 65 67 66 66 70 74 74 74 73 73 73 74 74 75 76 77 77 78 77 77 76 76 75 75 75 75 74 72
75 75 73 73 73 74 73 72 72 72 68 66 68 67 66 66 66 68 66 66 70 75 75 75 75 75 75 75 75 76 77 78 77 77 76 76 76 76 76 75 75 75 73
75 76 73 71 72 75 74 72 72 71 68 67 68 68 68 67 68 69 69 67 68 66 74 76 76 76 76 76 76 77 77 77 77 77 77 76 76 76 75 76 76 75 73
74 76 72 74 76 74 71 73 71 70 68 67 64 67 68 68 70 63 68 68 68 68 69 73 75 76 76 75 76 77 77 77 76 76 76 75 75 75 76 76 75 76 74
74 77 73 75 77 74 71 71 77 71 72 69 59 61 65 68 68 69 66 66 69 68 68 70 71 73 75 76 77 77 76 76 76 75 76 76 75 75 75 75 75 75 75
76 77 77 76 70 67 72 71 74 73 72 71 71 68 67 66 66 67 66 66 66 65 64 70 73 75 74 76 76 76 76 76 75 76 76 75 75 75 75 75 75 74 75
76 76 75 74 71 67 69 70 69 72 72 71 71 70 66 66 63 65 64 63 64 66 67 67 73 73 75 75 75 76 76 76 75 75 75 75 75 75 75 75 75 75 75
74 74 76 76 72 72 75 69 66 71 68 69 72 71 66 63 62 64 66 66 66 67 68 71 70 70 75 74 77 76 75 74 72 72 72 74 75 75 75 75 75 75 74
74 73 76 76 77 76 73 74 73 66 66 68 72 68 69 64 59 59 66 66 67 69 66 69 69 73 73 73 76 74 72 72 72 72 72 73 74 75 76 76 76 76 75
76 73 75 76 76 76 76 76 76 76 75 74 71 65 64 68 66 68 64 64 68 68 70 69 68 71 71 71 73 71 71 71 72 72 71 72 73 75 75 75 77 77 76
73 75 75 77 78 77 77 75 77 77 77 77 76 75 72 69 66 66 67 63 65 69 69 70 69 68 73 74 70 73 73 72 71 71 71 71 73 73 74 74 74 75 76
73 75 77 77 76 78 77 77 78 77 77 77 76 75 73 71 71 70 70 68 66 67 68 68 70 68 69 73 73 74 73 71 71 70 70 71 71 71 71 71 71 71 72
69 71 74 77 76 77 77 77 76 75 75 75 75 77 75 72 69 69 70 68 64 65 67 68 72 71 72 73 74 75 72 72 71 69 69 69 69 70 69 69 69 69 69
73 74 75 76 76 76 76 77 75 75 75 76 75 75 75 73 71 71 69 70 69 64 65 66 66 70 73 72 73 72 74 71 71 70 68 68 68 68 67 67 67 67 67
77 77 76 76 75 76 77 77 75 75 75 75 72 75 75 73 73 72 72 67 69 70 65 69 71 73 72 69 72 73 73 71 70 68 67 66 65 64 64 64 64 64 65
77 76 76 76 76 76 76 76 76 75 75 75 75 75 74 75 73 72 72 73 72 72 70 72 71 73 73 71 70 71 73 72 70 67 65 63 62 61 61 61 61 62 63
77 77 77 77 76 76 76 76 75 73 75 74 75 75 74 70 74 75 73 73 73 73 71 70 72 71 72 70 68 70 72 73 70 64 62 61 59 59 58 58 57 57 57
76 75 76 75 74 75 74 76 75 75 75 74 74 73 73 73 73 74 74 73 73 73 73 72 70 71 73 72 71 71 72 69 67 62 63 61 57 57 57 56 56 55 54
75 75 76 75 74 74 75 74 74 75 74 73 75 74 73 73 73 73 73 73 72 72 69 68 71 70 71 72 71 69 69 71 66 67 63 58 58 58 56 55 56 55 54
75 76 75 75 75 73 68 70 75 75 73 73 74 74 74 72 70 70 73 74 73 72 72 70 70 69 70 70 68 69 69 70 70 70 67 56 56 55 53 53 51 52 53
76 75 75 74 74 65 62 63 65 70 72 73 73 73 74 71 68 68 68 66 68 73 72 72 71 70 70 70 71 70 68 68 68 72 68 67 62 53 47 47 50 50 51
75 74 74 73 70 64 61 62 64 64 68 73 73 74 74 73 71 69 63 62 62 62 64 67 69 70 69 68 69 69 70 69 70 70 70 69 64 48 41 45 52 52 51
74 74 72 72 65 60 58 60 62 65 68 71 70 70 70 70 63 65 68 68 67 64 63 63 69 64 62 61 62 64 66 70 72 67 66 65 65 55 48 48 52 52 51
71 72 71 69 64 58 55 55 60 66 69 67 67 64 66 66 53 52 61 66 65 59 54 56 55 55 55 56 59 64 62 63 66 67 62 64 66 61 53 49 49 52 51
69 64 59 59 57 52 51 52 56 62 64 67 64 58 56 60 55 52 55 61 66 66 59 56 59 58 58 60 60 62 59 57 58 60 56 59 62 58 60 56 51 49 49
Lifted_Index
-3 -3 -3 -3 -2 -2 -2 -3 -4 -4 -3 -2 -2 -2 -2 -2 -2 -2 -3 -4 -4 -5 -6 -6 -6 -7 -7 -8 -8 -8 -9 -9 -9 -9 -8 -8 -7 -7 -6 -6 -6 -6 -6
-4 -4 -4 -3 -3 -3 -3 -3 -4 -4 -3 -3 -2 -2 -2 -2 -3 -3 -3 -3 -4 -5 -5 -6 -6 -7 -7 -7 -8 -8 -8 -8 -9 -8 -8 -7 -7 -6 -6 -6 -6 -6 -6
-4 -4 -4 -3 -3 -3 -3 -3 -4 -4 -3 -3 -3 -3 -3 -3 -3 -3 -3 -3 -4 -4 -5 -6 -6 -7 -7 -7 -8 -8 -8 -8 -8 -8 -7 -7 -6 -6 -6 -6 -7 -6 -6
-5 -4 -4 -3 -3 -3 -3 -3 -3 -3 -2 -2 -3 -3 -3 -4 -4 -4 -4 -4 -4 -4 -5 -6 -6 -6 -7 -7 -7 -7 -8 -8 -8 -7 -7 -7 -6 -6 -6 -7 -7 -7 -6
-5 -4 -4 -4 -4 -4 -4 -3 -3 -3 -2 -2 -2 -3 -3 -4 -4 -4 -4 -5 -5 -5 -5 -5 -6 -6 -6 -7 -7 -7 -7 -7 -7 -7 -7 -6 -6 -6 -6 -6 -7 -7 -7
-5 -5 -5 -5 -4 -4 -3 -4 -4 -4 -4 -3 -2 -2 -3 -4 -4 -5 -5 -5 -5 -5 -5 -5 -6 -6 -7 -6 -7 -7 -7 -7 -7 -7 -6 -6 -5 -5 -6 -6 -6 -6 -6
-5 -5 -5 -4 -3 -2 -3 -4 -5 -5 -4 -4 -3 -3 -3 -4 -4 -4 -4 -4 -5 -4 -5 -6 -7 -7 -7 -7 -7 -6 -6 -6 -6 -6 -6 -5 -5 -5 -5 -5 -6 -6 -6
-5 -5 -5 -4 -2 -1 -3 -4 -3 -3 -4 -4 -4 -4 -3 -3 -3 -3 -3 -3 -3 -3 -3 -5 -6 -6 -7 -8 -7 -6 -6 -5 -5 -5 -5 -5 -5 -5 -5 -6 -5 -5 -5
-5 -5 -5 -4 -3 -3 -4 -4 -3 -3 -4 -4 -4 -4 -3 -2 -2 -1 -2 -2 -2 -2 -2 -3 -4 -4 -6 -7 -7 -6 -5 -4 -3 -3 -4 -4 -5 -5 -6 -6 -6 -5 -5
-4 -4 -5 -5 -5 -5 -5 -5 -4 -4 -5 -4 -4 -3 -2 -2 -1 -1 -1 -1 -1 -1 -1 -2 -3 -4 -5 -6 -6 -4 -3 -2 -2 -2 -3 -3 -4 -5 -5 -6 -6 -5 -5
-4 -4 -5 -5 -5 -5 -5 -5 -5 -5 -5 -5 -4 -3 -2 -3 -2 -1 -1 -2 -2 -1 -1 -2 -3 -4 -5 -5 -4 -3 -2 -2 -2 -2 -2 -2 -3 -4 -5 -5 -5 -5 -5
-4 -4 -5 -5 -5 -5 -5 -5 -5 -5 -6 -6 -5 -4 -4 -4 -3 -3 -3 -2 -2 -2 -2 -2 -2 -2 -3 -4 -3 -2 -2 -2 -1 -1 -1 -1 -2 -3 -3 -4 -4 -4 -4
-3 -4 -4 -5 -5 -5 -5 -5 -5 -5 -5 -5 -5 -5 -5 -4 -4 -3 -3 -3 -2 -2 -1 -1 -1 -1 -2 -3 -3 -3 -2 -2 -1 -1 -1 -1 -1 -1 -2 -2 -2 -2 -3
-3 -3 -4 -5 -5 -5 -5 -5 -5 -5 -5 -5 -5 -5 -5 -4 -3 -3 -3 -2 -2 -2 -1 -1 -1 -1 -2 -2 -3 -3 -3 -2 -2 -1 -1 -0 -0 -0 -1 -1 -1 -1 -1
-4 -4 -5 -5 -5 -5 -5 -5 -5 -4 -5 -5 -5 -5 -5 -4 -4 -3 -3 -2 -2 -2 -2 -2 -2 -3 -3 -3 -3 -3 -3 -3 -2 -1 -1 -0 0 0 -0 -1 -1 -1 -1
-5 -5 -5 -5 -5 -5 -5 -5 -5 -5 -4 -4 -4 -5 -4 -4 -4 -3 -3 -2 -3 -3 -3 -3 -3 -3 -3 -3 -2 -3 -3 -3 -2 -1 -1 -0 0 0 0 -0 -0 -0 -0
-5 -5 -5 -6 -5 -5 -5 -5 -5 -5 -5 -4 -4 -4 -4 -4 -4 -3 -3 -3 -3 -3 -3 -3 -3 -3 -3 -2 -2 -2 -3 -3 -2 -2 -1 0 1 1 1 1 1 1 1
-5 -6 -6 -6 -5 -5 -5 -5 -5 -5 -5 -4 -4 -4 -4 -4 -4 -3 -3 -3 -3 -3 -3 -3 -3 -3 -2 -2 -1 -1 -2 -2 -2 -2 -1 -0 1 1 1 1 2 2 2
-5 -5 -6 -5 -5 -5 -5 -5 -5 -5 -5 -4 -4 -4 -4 -4 -3 -3 -3 -3 -3 -3 -2 -2 -2 -2 -2 -2 -1 -0 -1 -2 -2 -1 -1 -0 0 1 1 2 2 3 3
-4 -5 -5 -5 -5 -4 -4 -4 -4 -4 -4 -4 -4 -3 -3 -3 -3 -3 -3 -3 -3 -2 -2 -1 -1 -2 -2 -2 -1 -0 -1 -1 -1 -1 -1 -1 -0 1 1 2 3 3 4
-4 -4 -4 -4 -4 -4 -3 -3 -3 -3 -3 -3 -3 -3 -3 -3 -3 -2 -2 -2 -2 -2 -2 -1 -1 -1 -2 -2 -1 -1 -1 -1 -1 -1 -1 -1 -0 0 1 2 2 3 3
-5 -4 -4 -4 -3 -3 -2 -2 -2 -2 -2 -3 -3 -3 -3 -3 -2 -1 -1 -1 -1 -1 -1 -1 -1 -1 -1 -1 -1 -1 -1 -1 -1 -1 -1 -1 -0 0 1 1 2 3 3
-4 -4 -3 -3 -2 -2 -2 -2 -1 -1 -1 -2 -2 -2 -2 -2 -1 -1 -1 -0 0 0 0 0 -0 -0 0 0 1 0 -0 -1 -1 -1 -1 -1 -0 -0 0 1 2 3 4
-4 -3 -3 -2 -2 -1 -1 -1 -1 -0 -0 -1 -1 -0 -0 -0 -0 -0 -0 0 1 1 2 2 1 1 1 2 2 2 1 -0 -1 -1 -0 -0 0 0 1 2 3 4 5
-3 -2 -2 -1 -1 -1 -1 -0 0 1 1 1 1 2 1 1 1 1 1 1 1 1 2 2 2 2 2 3 2 2 2 1 -0 -0 0 1 1 1 2 3 4 5 6
-2 -2 -1 -1 -1 -0 -0 0 1 1 1 1 2 2 2 2 2 2 2 2 1 1 1 2 2 2 3 3 2 2 2 1 1 1 0 1 2 2 3 3 4 5 6